GPS BIIR-11 (PRN 19)

Last updated on Sat Jul 05 2025 00:03:13 GMT+0000 (Coordinated Universal Time)

1 28190U 04009A 25185.40901223 -.00000076 00000+0 00000+0 0 9997 2 28190 55.1218 289.7181 0106267 162.1769 220.8208 2.00566984155973
UTC large
Height (km)
Speed (km/s)
/
Latitude / Longitude
Inclination (degrees)
Orbital Period (minutes)
Azimuth
Elevation
Range (km)
Doppler Factor

Next 0 passes for location: London (51.5072 / 0.1276)

Sorry there are no passes over London.